Weather History for Louisville, KY

Change the Weather History Date:

Wednesday, October 16, 2013

  Actual Average Record
Temperature  
Mean Temperature 61 °F 59 °F  
Max Temperature 68 °F 70 °F 89 °F (1947)
Min Temperature 53 °F 49 °F 30 °F (1939)
Degree Days  
Heating Degree Days 4 7  
Month to date heating degree days 24 81  
Since 1 July heating degree days 30 111  
Cooling Degree Days 0 1  
Month to date cooling degree days 53 31  
Year to date cooling degree days 1628 1598  
Growing Degree Days 9 (Base 50)    
Moisture  
Dew Point 57 °F    
Average Humidity 80    
Maximum Humidity 93    
Minimum Humidity 67    
Precipitation  
Precipitation 0.01 in 0.10 in 1.79 in (1925)
Month to date precipitation 7.58 1.68  
Year to date precipitation 42.09 35.95  
Snow  
Snow 0.00 in 0.00 in 0.00 in ()
Month to date snowfall 0.0 0.0  
Since 1 July snowfall 0.0 0.0  
Since 1 September snowfall 0.0 0.0  
Snow Depth 0.00 in    
Sea Level Pressure  
Sea Level Pressure 29.95 in    
Wind  
Wind Speed 6 mph (WSW)    
Max Wind Speed 14 mph    
Max Gust Speed 17 mph    
Visibility 10 miles    
Events Rain    
T = Trace of Precipitation, MM = Missing Value Source: NWS Daily Summary

Daily Weather History Graph

Daily Weather History Graph

Search for Another Location

Airport:

Trip Planner

Search our weather history database for the weather conditions in past years. The results will help you decide how hot, cold, wet, or windy it might be!

Date:

Astronomy

Oct. 16, 2013 Rise Set
Actual Time 7:52 AM EDT 7:03 PM EDT
Civil Twilight 7:26 AM EDT 7:29 PM EDT
Nautical Twilight 6:55 AM EDT 8:00 PM EDT
Astronomical Twilight 6:25 AM EDT 8:31 PM EDT
Moon 5:41 PM EDT (10/16) 5:21 AM EDT (10/16)
Length of Visible Light 12h 03m
Length of Day
11h 10m
Waxing Gibbous, 94% of the Moon is Illuminated
Oct 16
Waxing Gibbous
Oct 18
Full
Oct 26
Last Quarter
Nov 3
New
Nov 10
First Quarter

Hourly Weather History & Observations

Time (EDT) Temp. Dew Point Humidity Pressure Visibility Wind Dir Wind Speed Gust Speed Precip Events Conditions
12:56 AM 68.0 °F 60.1 °F 76% 29.94 in 10.0 mi South 10.4 mph - N/A   Overcast
1:56 AM 68.0 °F 60.1 °F 76% 29.94 in 10.0 mi South 6.9 mph - N/A   Overcast
2:56 AM 66.9 °F 60.1 °F 79% 29.93 in 10.0 mi South 9.2 mph - N/A   Overcast
3:56 AM 66.0 °F 61.0 °F 84% 29.91 in 10.0 mi South 8.1 mph - 0.00 in Rain Light Rain
4:08 AM 66.2 °F 60.8 °F 83% 29.92 in 10.0 mi South 9.2 mph - 0.00 in Rain Light Rain
4:56 AM 66.0 °F 61.0 °F 84% 29.91 in 10.0 mi South 8.1 mph - 0.00 in Rain Light Rain
5:56 AM 66.0 °F 61.0 °F 84% 29.92 in 10.0 mi South 8.1 mph - 0.00 in Rain Light Rain
6:01 AM 64.4 °F 60.8 °F 88% 29.93 in 10.0 mi South 6.9 mph - 0.00 in Rain Light Rain
6:56 AM 64.9 °F 62.1 °F 90% 29.92 in 10.0 mi South 8.1 mph - 0.00 in   Overcast
7:44 AM 64.4 °F 62.6 °F 94% 29.93 in 10.0 mi SSW 6.9 mph - 0.00 in   Overcast
7:56 AM 64.9 °F 62.1 °F 90% 29.92 in 10.0 mi South 6.9 mph - 0.00 in   Overcast
8:21 AM 64.4 °F 62.6 °F 94% 29.94 in 10.0 mi SSW 8.1 mph - N/A   Overcast
8:35 AM 64.4 °F 62.6 °F 94% 29.94 in 2.0 mi SSW 8.1 mph - 0.00 in Rain Light Rain
8:47 AM 64.4 °F 62.6 °F 94% 29.95 in 3.0 mi SW 9.2 mph - 0.01 in   Overcast
8:56 AM 64.9 °F 63.0 °F 93% 29.94 in 7.0 mi SW 6.9 mph - 0.01 in   Light Drizzle
9:06 AM 64.4 °F 62.6 °F 94% 29.96 in 6.0 mi NW 11.5 mph 16.1 mph 0.00 in Rain Light Rain
9:36 AM 62.6 °F 57.2 °F 82% 29.97 in 10.0 mi NW 8.1 mph - 0.00 in   Overcast
9:56 AM 61.0 °F 55.9 °F 83% 29.98 in 10.0 mi NW 6.9 mph - 0.00 in   Overcast
10:39 AM 60.8 °F 55.4 °F 82% 29.99 in 10.0 mi WNW 8.1 mph - N/A   Overcast
10:56 AM 62.1 °F 55.9 °F 80% 29.99 in 10.0 mi WNW 6.9 mph - N/A   Overcast
11:49 AM 62.6 °F 53.6 °F 72% 29.99 in 10.0 mi NW 4.6 mph - N/A   Overcast
11:56 AM 62.1 °F 53.1 °F 72% 29.98 in 10.0 mi WNW 3.5 mph - N/A   Overcast
12:56 PM 64.0 °F 55.0 °F 73% 29.97 in 10.0 mi Variable 5.8 mph - N/A   Overcast
1:56 PM 64.9 °F 55.9 °F 73% 29.96 in 10.0 mi West 4.6 mph - 0.00 in   Light Drizzle
2:56 PM 64.0 °F 55.9 °F 75% 29.95 in 10.0 mi WSW 8.1 mph - 0.00 in   Overcast
3:56 PM 64.0 °F 54.0 °F 70% 29.95 in 10.0 mi WNW 8.1 mph - N/A   Overcast
4:56 PM 64.0 °F 53.1 °F 67% 29.94 in 10.0 mi West 6.9 mph - N/A   Mostly Cloudy
5:56 PM 63.0 °F 51.1 °F 65% 29.94 in 10.0 mi NW 6.9 mph - N/A   Mostly Cloudy
6:56 PM 62.1 °F 51.1 °F 67% 29.94 in 10.0 mi WNW 5.8 mph - N/A   Mostly Cloudy
7:56 PM 57.9 °F 51.1 °F 78% 29.95 in 10.0 mi WNW 5.8 mph - N/A   Scattered Clouds
8:56 PM 57.0 °F 51.1 °F 81% 29.96 in 10.0 mi West 4.6 mph - N/A   Clear
9:56 PM 55.9 °F 51.1 °F 84% 29.98 in 10.0 mi West 4.6 mph - N/A   Partly Cloudy
10:56 PM 54.0 °F 50.0 °F 86% 29.97 in 10.0 mi WNW 3.5 mph - N/A   Partly Cloudy
11:56 PM 54.0 °F 50.0 °F 86% 29.96 in 10.0 mi West 3.5 mph - N/A   Partly Cloudy